Back to catalog

STARLINK-5132

AliveCommunicationsVLEO
NORAD 54007·PAYLOAD·🇺🇸 United States

Launched Oct 5, 2022 from Vandenberg Space Force Base

Loading…

Next Passes (next 24 hours)

TLE

FreshSource: CelesTrak SupGP

Epoch: Sep 14, 2026, 13:35 UTC

1 54007C 22125AV  26257.56645833 -.00003066  00000+0 -19227-3 0  2577
2 54007  53.1572  85.2373 0001426  99.4362 185.5815 15.08839286    19

Track STARLINK-5132 in real time with AllMySat

Download on the App Store